Regional Weather Roundup
Issued by NWS

Home | Current Version | Previous Version | Graphics & Text | Print | Product List | Glossary On
Versions: 1 2 3 4 5 6 7 8 9 10 11 12 13 14 15 16 17 18 19 20 21 22 23 24 25 26 27 28 29 30 31 32 33 34 35 36 37 38 39 40 41 42 43 44 45 46 47 48 49 50
000
ASUS45 KABQ 042301
RWRNM
WEATHER ROUNDUP FOR NEW MEXICO
NATIONAL WEATHER SERVICE ALBUQUERQUE NM
500 PM MDT MON MAY 04 2015

NOTE: "FAIR" MEANS FEW OR NO CLOUDS BELOW 12,000 FEET AGL WITH NO
       SIGNIFICANT WEATHER OR OBSTRUCTIONS TO VISION.

      THIS PRODUCT IS RELEASED AS TWO VERSIONS.  ONE VERSION NEAR
      THE TOP OF THE HOUR CONTAINING PRELIMINARY DATA FROM ALBUQUERQUE
      AND OTHER STATIONS.  A FINAL VERSION WITH ADDITIONAL DATA IS
      ISSUED ABOUT 10 MINUTES AFTER THE HOUR.

NMZ501-503-504-510>518-050000-
NORTHWEST PLATEAU/NORTHCENTRAL MOUNTAINS

CITY           SKY/WX    TMP DP  RH WIND       PRES   REMARKS
FARMINGTON     LGT RAIN  59  43  55 S23G35    29.93S
LOS ALAMOS     LGT RAIN  61  36  39 S6        30.03S
SANTA FE       CLOUDY    59  41  51 E20G26    29.98R
TAOS           CLOUDY    57  34  41 SE20G26   30.03F
ANGEL FIRE     FAIR      45  38  79 W3        30.12F

$$
NMZ402-403-502-505>509-050000-
WESTCENTRAL MOUNTAINS/SOUTHWEST MOUNTAINS

CITY           SKY/WX    TMP DP  RH WIND       PRES   REMARKS
GALLUP         PTSUNNY   56  44  64 NE10      29.99F
GRANTS         CLOUDY    55  45  70 W10       29.98F
SILVER CITY      N/A     70  37  30 SE13G21   29.93F

$$
NMZ407-409-411-412-050000-
SOUTHERN DESERTS

CITY           SKY/WX    TMP DP  RH WIND       PRES   REMARKS
LORDSBURG      FAIR      77  43  29 S14G33    29.82F
DEMING         PTSUNNY   73  44  35 N6        29.86F
LAS CRUCES     PTSUNNY   80  35  19 S10G18    29.81F
ALAMOGORDO     PTSUNNY   77  43  29 SE22G31   29.82F
T OR C         MOSUNNY   78  38  23 S17G24    29.81F

$$
NMZ519>523-050000-
CENTRAL VALLEYS/CENTRAL HIGHLANDS

CITY           SKY/WX    TMP DP  RH WIND       PRES   REMARKS
ALBUQUERQUE    PTSUNNY   71  40  32 N16       29.88F THUNDER
DOUBLE EAGLE   PTSUNNY   70  41  35 N12G20    29.92F
MORIARTY ARPT  CLOUDY    64  37  36 SE22G33   29.99R
CLINES CORNERS PTSUNNY   58  40  51 SE18G29   30.00F
BELEN          FAIR      73  37  26 W20       29.87F
SOCORRO        NOT AVBL

$$
NMZ524>526-539-540-050000-
SOUTHCENTRAL MOUNTAINS

CITY           SKY/WX    TMP DP  RH WIND       PRES   REMARKS
RUIDOSO        NOT AVBL

$$
NMZ527>531-050000-
NORTHEAST HIGHLANDS/NORTHEAST PLAINS

CITY           SKY/WX    TMP DP  RH WIND       PRES   REMARKS
LAS VEGAS      PTSUNNY   60  40  47 N13       30.04F
RATON          LGT RAIN  54  48  80 NE13      30.06R
CLAYTON        CLOUDY    55  51  86 E8        30.04F

$$
NMZ532>537-050000-
EASTCENTRAL PLAINS

CITY           SKY/WX    TMP DP  RH WIND       PRES   REMARKS
TUCUMCARI      MOSUNNY   74  50  42 SE10      29.92F
CANNON AFB     TSTM      59  55  88 NE14      29.94F FOG
CLOVIS AIRPORT CLOUDY    57  55  94 E14       29.95F THUNDER

$$
NMZ028-029-538-050000-
SOUTHEAST PLAINS

CITY           SKY/WX    TMP DP  RH WIND       PRES   REMARKS
ROSWELL        TSTM      62  55  77 NW17G26   29.89S
ARTESIA        DRIZZLE   68  55  64 NW23      29.87S
CARLSBAD       LGT RAIN  74  58  57 SE17      29.83S
HOBBS          PTSUNNY   75  57  53 SE23G31   29.88F


$$


USA.gov is the U.S. government's official web portal to all federal, state and local government web resources and services.